STARLINK-34520

导读

STARLINK-34520是美国(US)于2025年6月23日发射的星链系列卫星,隶属于SpaceX公司的星链(Starlink)项目。星链项目旨在构建全球卫星互联网星座,为全球多地提供高速低延迟宽带网络服务,该卫星的发射进一步推进了星链星座的组网部署进程。

Basic Information
目录编号:
64486
目录名称:
STARLINK-34520
国际标识:
2025-133Q
轨道中心:
EARTH
卫星名称:
STARLINK-34520
卫星全名:
STARLINK-34520
卫星状态:
在轨 (已飞行356 天)
发射日期:
2025-06-23 UTC
国别 :
美国 (US)
星等 :
--
Orbit Information
数据来源 国际轨道数据
星历时间: 2026-06-14T05:17:12+0800
3小时前
查看轨道信息
半长轴: 6853.196km
偏心率: 0.0005521
轨道倾角: 53.161°
近地点辐角 84.363°
升交点赤经 30.183°
平近点角 275.800°
近地点: 471.275km
远地点: 478.843km
周期: 94.102分钟
每日圈数: 15.302524
Detailed Information
使用方式:
暂无
2D Orbit Map
3D Orbit Map
Orbit Altitude Analysis Chart
Orbit Inclination Analysis Chart
Orbit Comprehensive Analysis Chart
View Comprehensive Chart